TimeEDT,TemperatureF,Dew PointF,Humidity,Sea Level PressureIn,VisibilityMPH,Wind Direction,Wind SpeedMPH,Gust SpeedMPH,PrecipitationIn,Events,Conditions,WindDirDegrees,DateUTC
12:53 AM,51.1,48.9,92,30.14,10.0,NW,3.5,-,N/A,,Overcast,320,2012-10-09 04:53:00
1:53 AM,50.0,48.0,93,30.13,10.0,Calm,Calm,-,N/A,,Overcast,0,2012-10-09 05:53:00
2:53 AM,50.0,48.0,93,30.13,10.0,NNE,3.5,-,N/A,,Overcast,20,2012-10-09 06:53:00
3:53 AM,50.0,48.9,96,30.12,10.0,Calm,Calm,-,N/A,,Overcast,0,2012-10-09 07:53:00
4:53 AM,50.0,48.9,96,30.12,10.0,North,3.5,-,N/A,,Overcast,10,2012-10-09 08:53:00
5:53 AM,51.1,48.9,92,30.13,10.0,Calm,Calm,-,N/A,,Overcast,0,2012-10-09 09:53:00
6:53 AM,51.8,48.2,88,30.15,10.0,Calm,Calm,-,N/A,,Overcast,0,2012-10-09 10:53:00
7:42 AM,51.8,48.2,88,30.15,10.0,North,3.5,-,N/A,,Overcast,10,2012-10-09 11:42:00
7:53 AM,51.1,48.9,92,30.14,10.0,Calm,Calm,-,N/A,,Overcast,0,2012-10-09 11:53:00
8:53 AM,52.0,48.9,89,30.15,10.0,North,3.5,-,N/A,,Overcast,360,2012-10-09 12:53:00
9:05 AM,51.8,50.0,94,30.16,10.0,Calm,Calm,-,N/A,,Overcast,0,2012-10-09 13:05:00
9:53 AM,54.0,50.0,86,30.15,10.0,NE,4.6,-,N/A,,Overcast,50,2012-10-09 13:53:00
10:49 AM,57.2,51.8,82,30.15,10.0,NE,5.8,-,N/A,,Mostly Cloudy,40,2012-10-09 14:49:00
10:53 AM,57.9,51.1,78,30.14,10.0,North,5.8,-,N/A,,Mostly Cloudy,10,2012-10-09 14:53:00
11:53 AM,60.1,51.1,72,30.15,10.0,Calm,Calm,-,N/A,,Overcast,0,2012-10-09 15:53:00
12:53 PM,59.0,51.1,75,30.14,10.0,Calm,Calm,-,N/A,,Overcast,0,2012-10-09 16:53:00
1:53 PM,61.0,50.0,67,30.10,10.0,Calm,Calm,-,N/A,,Overcast,0,2012-10-09 17:53:00
2:53 PM,64.0,51.1,63,30.08,10.0,Calm,Calm,-,N/A,,Overcast,0,2012-10-09 18:53:00
3:53 PM,64.9,50.0,58,30.07,10.0,West,5.8,-,N/A,,Scattered Clouds,280,2012-10-09 19:53:00
4:53 PM,66.9,51.1,57,30.05,10.0,ESE,3.5,-,N/A,,Mostly Cloudy,110,2012-10-09 20:53:00
5:53 PM,64.9,50.0,58,30.04,10.0,East,4.6,-,N/A,,Clear,80,2012-10-09 21:53:00
6:53 PM,61.0,53.1,75,30.04,10.0,Calm,Calm,-,N/A,,Clear,0,2012-10-09 22:53:00
7:53 PM,54.0,52.0,93,30.04,10.0,WNW,3.5,-,N/A,,Clear,300,2012-10-09 23:53:00
8:53 PM,53.1,51.1,93,30.06,10.0,NNW,3.5,-,N/A,,Clear,340,2012-10-10 00:53:00
9:53 PM,52.0,51.1,97,30.07,8.0,Calm,Calm,-,N/A,,Clear,0,2012-10-10 01:53:00
10:53 PM,50.0,48.9,96,30.08,8.0,NNE,3.5,-,N/A,,Clear,20,2012-10-10 02:53:00
11:53 PM,48.9,48.0,97,30.09,6.0,Calm,Calm,-,N/A,,Clear,0,2012-10-10 03:53:00